TimeCDT,TemperatureF,Dew PointF,Humidity,Sea Level PressureIn,VisibilityMPH,Wind Direction,Wind SpeedMPH,Gust SpeedMPH,PrecipitationIn,Events,Conditions,WindDirDegrees,DateUTC
12:12 AM,42.8,39.2,87,30.04,10.0,Calm,Calm,-,N/A,,Clear,0,2013-10-10 05:12:00
12:33 AM,42.8,39.2,87,30.04,10.0,Calm,Calm,-,N/A,,Clear,0,2013-10-10 05:33:00
12:52 AM,42.8,39.2,87,30.04,10.0,Calm,Calm,-,N/A,,Clear,0,2013-10-10 05:52:00
1:13 AM,42.8,39.2,87,30.04,10.0,Calm,Calm,-,N/A,,Clear,0,2013-10-10 06:13:00
1:33 AM,42.8,39.2,87,30.04,10.0,Calm,Calm,-,N/A,,Clear,0,2013-10-10 06:33:00
1:52 AM,42.8,39.2,87,30.04,10.0,Calm,Calm,-,N/A,,Clear,0,2013-10-10 06:52:00
2:13 AM,42.8,39.2,87,30.04,10.0,Calm,Calm,-,N/A,,Clear,0,2013-10-10 07:13:00
2:33 AM,42.8,39.2,87,30.04,10.0,Calm,Calm,-,N/A,,Clear,0,2013-10-10 07:33:00
2:52 AM,41.0,39.2,93,30.03,10.0,Calm,Calm,-,N/A,,Clear,0,2013-10-10 07:52:00
3:13 AM,41.0,39.2,93,30.03,10.0,Calm,Calm,-,N/A,,Clear,0,2013-10-10 08:13:00
3:33 AM,41.0,37.4,87,30.03,10.0,Calm,Calm,-,N/A,,Clear,0,2013-10-10 08:33:00
3:53 AM,39.2,37.4,93,30.03,10.0,Calm,Calm,-,N/A,,Clear,0,2013-10-10 08:53:00
4:12 AM,39.2,37.4,93,30.03,10.0,Calm,Calm,-,N/A,,Clear,0,2013-10-10 09:12:00
4:32 AM,39.2,37.4,93,30.04,10.0,Calm,Calm,-,N/A,,Clear,0,2013-10-10 09:32:00
4:52 AM,39.2,37.4,93,30.03,10.0,Calm,Calm,-,N/A,,Clear,0,2013-10-10 09:52:00
5:13 AM,39.2,37.4,93,30.03,10.0,Calm,Calm,-,N/A,,Clear,0,2013-10-10 10:13:00
5:32 AM,39.2,37.4,93,30.03,10.0,Calm,Calm,-,N/A,,Clear,0,2013-10-10 10:32:00
5:53 AM,39.2,37.4,93,30.03,10.0,Calm,Calm,-,N/A,,Clear,0,2013-10-10 10:53:00
6:13 AM,39.2,37.4,93,30.02,10.0,Calm,Calm,-,N/A,,Clear,0,2013-10-10 11:13:00
6:33 AM,37.4,37.4,100,30.02,10.0,Calm,Calm,-,N/A,,Clear,0,2013-10-10 11:33:00
6:52 AM,37.4,35.6,93,30.02,10.0,Calm,Calm,-,N/A,,Clear,0,2013-10-10 11:52:00
7:12 AM,37.4,37.4,100,30.01,10.0,Calm,Calm,-,N/A,,Clear,0,2013-10-10 12:12:00
7:32 AM,39.2,37.4,93,30.01,10.0,Calm,Calm,-,N/A,,Clear,0,2013-10-10 12:32:00
7:52 AM,39.2,39.2,100,30.01,10.0,Calm,Calm,-,N/A,,Clear,0,2013-10-10 12:52:00
8:12 AM,42.8,39.2,87,30.01,10.0,Calm,Calm,-,N/A,,Clear,0,2013-10-10 13:12:00
8:32 AM,44.6,42.8,93,30.01,10.0,Calm,Calm,-,N/A,,Clear,0,2013-10-10 13:32:00
8:53 AM,50.0,48.2,94,30.01,10.0,Calm,Calm,-,N/A,,Clear,0,2013-10-10 13:53:00
9:12 AM,53.6,51.8,94,30.00,10.0,SSE,3.5,-,N/A,,Clear,160,2013-10-10 14:12:00
9:33 AM,55.4,50.0,82,30.00,10.0,SSE,5.8,-,N/A,,Clear,160,2013-10-10 14:33:00
9:52 AM,57.2,50.0,77,30.00,10.0,SSE,5.8,-,N/A,,Clear,160,2013-10-10 14:52:00
10:12 AM,60.8,50.0,68,30.00,10.0,South,4.6,-,N/A,,Clear,170,2013-10-10 15:12:00
10:32 AM,60.8,48.2,63,30.00,10.0,South,5.8,-,N/A,,Clear,170,2013-10-10 15:32:00
10:52 AM,62.6,48.2,59,30.00,10.0,South,5.8,-,N/A,,Clear,170,2013-10-10 15:52:00
11:13 AM,62.6,50.0,63,30.00,10.0,Calm,Calm,-,N/A,,Clear,0,2013-10-10 16:13:00
11:32 AM,66.2,50.0,56,29.99,10.0,Calm,Calm,-,N/A,,Clear,0,2013-10-10 16:32:00
11:53 AM,66.2,51.8,60,29.98,10.0,SE,3.5,-,N/A,,Clear,140,2013-10-10 16:53:00
12:13 PM,69.8,51.8,53,29.98,10.0,Calm,Calm,-,N/A,,Clear,0,2013-10-10 17:13:00
12:32 PM,69.8,50.0,49,29.97,10.0,SE,5.8,-,N/A,,Clear,130,2013-10-10 17:32:00
12:53 PM,69.8,50.0,49,29.97,10.0,SSE,5.8,-,N/A,,Clear,150,2013-10-10 17:53:00
1:12 PM,69.8,50.0,49,29.96,10.0,SSE,5.8,-,N/A,,Clear,160,2013-10-10 18:12:00
1:33 PM,69.8,48.2,46,29.95,10.0,SSE,6.9,16.1,N/A,,Clear,150,2013-10-10 18:33:00
1:53 PM,71.6,48.2,43,29.95,10.0,South,3.5,-,N/A,,Clear,170,2013-10-10 18:53:00
2:12 PM,71.6,48.2,43,29.95,10.0,SE,8.1,-,N/A,,Clear,140,2013-10-10 19:12:00
2:32 PM,71.6,48.2,43,29.94,10.0,SSE,4.6,-,N/A,,Clear,160,2013-10-10 19:32:00
2:53 PM,73.4,46.4,38,29.93,10.0,SSE,6.9,18.4,N/A,,Clear,160,2013-10-10 19:53:00
3:12 PM,71.6,48.2,43,29.92,10.0,SSE,5.8,-,N/A,,Clear,150,2013-10-10 20:12:00
3:32 PM,75.2,46.4,36,29.91,10.0,SE,6.9,-,N/A,,Scattered Clouds,140,2013-10-10 20:32:00
3:52 PM,71.6,46.4,41,29.91,10.0,SSE,4.6,-,N/A,,Mostly Cloudy,150,2013-10-10 20:52:00
4:12 PM,71.6,48.2,43,29.91,10.0,SE,4.6,-,N/A,,Mostly Cloudy,140,2013-10-10 21:12:00
4:33 PM,69.8,46.4,43,29.91,10.0,SE,4.6,-,N/A,,Scattered Clouds,140,2013-10-10 21:33:00
4:53 PM,69.8,48.2,46,29.92,10.0,SSE,5.8,-,N/A,,Scattered Clouds,160,2013-10-10 21:53:00
5:12 PM,69.8,48.2,46,29.91,10.0,SE,5.8,-,N/A,,Scattered Clouds,140,2013-10-10 22:12:00
5:32 PM,69.8,46.4,43,29.92,10.0,SE,3.5,-,N/A,,Scattered Clouds,140,2013-10-10 22:32:00
5:52 PM,68.0,46.4,46,29.92,10.0,SSE,4.6,-,N/A,,Scattered Clouds,150,2013-10-10 22:52:00
6:13 PM,66.2,46.4,49,29.91,10.0,Calm,Calm,-,N/A,,Scattered Clouds,0,2013-10-10 23:13:00
6:32 PM,64.4,46.4,52,29.92,10.0,Calm,Calm,-,N/A,,Clear,0,2013-10-10 23:32:00
6:52 PM,60.8,46.4,59,29.92,10.0,Calm,Calm,-,N/A,,Clear,0,2013-10-10 23:52:00
7:12 PM,59.0,46.4,63,29.92,10.0,Calm,Calm,-,N/A,,Clear,0,2013-10-11 00:12:00
7:33 PM,60.8,46.4,59,29.92,10.0,SE,3.5,-,N/A,,Clear,140,2013-10-11 00:33:00
7:52 PM,60.8,46.4,59,29.92,10.0,SE,3.5,-,N/A,,Scattered Clouds,130,2013-10-11 00:52:00
8:13 PM,60.8,46.4,59,29.93,10.0,Calm,Calm,-,N/A,,Clear,0,2013-10-11 01:13:00
8:32 PM,59.0,46.4,63,29.93,10.0,Calm,Calm,-,N/A,,Clear,0,2013-10-11 01:32:00
8:53 PM,57.2,46.4,67,29.94,10.0,SE,3.5,-,N/A,,Clear,140,2013-10-11 01:53:00
9:12 PM,57.2,46.4,67,29.94,10.0,Calm,Calm,-,N/A,,Clear,0,2013-10-11 02:12:00
9:32 PM,57.2,46.4,67,29.94,10.0,SE,4.6,-,N/A,,Clear,130,2013-10-11 02:32:00
9:52 PM,57.2,46.4,67,29.95,10.0,SE,3.5,-,N/A,,Clear,130,2013-10-11 02:52:00
10:12 PM,57.2,46.4,67,29.95,10.0,SSE,3.5,-,N/A,,Scattered Clouds,150,2013-10-11 03:12:00
10:32 PM,57.2,46.4,67,29.95,10.0,SE,4.6,-,N/A,,Clear,140,2013-10-11 03:32:00
10:52 PM,57.2,44.6,63,29.95,10.0,Calm,Calm,-,N/A,,Clear,0,2013-10-11 03:52:00
11:12 PM,57.2,44.6,63,29.95,10.0,SE,3.5,-,N/A,,Clear,140,2013-10-11 04:12:00
11:32 PM,57.2,44.6,63,29.95,10.0,SE,3.5,-,N/A,,Clear,140,2013-10-11 04:32:00
11:52 PM,57.2,44.6,63,29.95,10.0,SE,4.6,-,N/A,,Clear,140,2013-10-11 04:52:00